EW2108 Weather Reports


time (UTC)temp
C
wind
direction
speed
KPH
gust
KPH
rain 1hr
cm
rain 24hr
cm
rain mn
cm
humidity
%
barometer
mb
20260509101552 14 134 0.0 1.6 0.00 0.00 0.00 82 1025.6
20260509100055 14 134 0.0 0.0 0.00 0.00 0.00 81 1025.5
20260509094551 15 134 0.0 0.0 0.00 0.00 0.00 78 1025.5
20260509093046 15 134 0.0 0.0 0.00 0.00 0.00 76 1025.4
20260509091545 16 134 0.0 3.2 0.00 0.00 0.00 75 1025.3
20260509090045 16 134 1.6 3.2 0.00 0.00 0.00 75 1025.1
20260509084542 16 134 0.0 3.2 0.00 0.00 0.00 74 1025.0
20260509083042 16 134 0.0 1.6 0.00 0.00 0.00 74 1024.9
20260509081546 16 134 1.6 3.2 0.00 0.00 0.00 73 1024.7
20260509080042 16 134 0.0 1.6 0.00 0.00 0.00 73 1024.5
20260509074539 17 134 0.0 3.2 0.00 0.00 0.00 73 1024.3
20260509073039 17 134 0.0 3.2 0.00 0.00 0.00 71 1024.1
20260509071543 17 134 0.0 8.0 0.00 0.00 0.00 70 1024.0
20260509070106 18 134 1.6 8.0 0.00 0.00 0.00 69 1023.8
20260509064535 18 134 4.8 16.1 0.00 0.00 0.00 69 1023.7
20260509063038 18 138 8.0 16.1 0.00 0.00 0.00 67 1023.6
20260509061545 19 138 6.4 14.5 0.00 0.00 0.00 63 1023.5
20260509060133 20 131 8.0 16.1 0.00 0.00 0.00 65 1023.3
20260509054531 20 131 11.3 19.3 0.00 0.00 0.00 63 1023.2
20260509053032 20 134 11.3 19.3 0.00 0.00 0.00 63 1023.1
20260509051533 20 132 8.0 17.7 0.00 0.00 0.00 63 1023.0
20260509050046 20 136 6.4 19.3 0.00 0.00 0.00 61 1023.0
20260509044541 20 142 8.0 16.1 0.00 0.00 0.00 61 1023.0
20260509043028 20 136 12.9 19.3 0.00 0.00 0.00 60 1022.9
20260509041528 20 130 9.7 19.3 0.00 0.00 0.00 61 1022.9
20260509040027 20 134 11.3 19.3 0.00 0.00 0.00 61 1023.0
20260509034527 20 132 11.3 17.7 0.00 0.00 0.00 61 1023.0
20260509033156 20 142 14.5 20.9 0.00 0.00 0.00 60 1023.0
20260509031525 20 129 9.7 22.5 0.00 0.00 0.00 61 1023.2
20260509030030 20 131 12.9 19.3 0.00 0.00 0.00 58 1023.3
20260509024522 21 131 9.7 16.1 0.00 0.00 0.00 57 1023.4
20260509023022 21 131 8.0 14.5 0.00 0.00 0.00 53 1023.6
20260509021521 21 145 8.0 17.7 0.00 0.00 0.00 57 1023.7
20260509020021 20 128 11.3 16.1 0.00 0.00 0.00 54 1023.9
20260509014522 21 194 1.6 9.7 0.00 0.00 0.00 53 1024.0
20260509013033 21 196 3.2 11.3 0.00 0.00 0.00 54 1024.1
20260509011644 20 193 3.2 9.7 0.00 0.00 0.00 54 1024.3
20260509010010 20 189 4.8 11.3 0.00 0.00 0.00 55 1024.5
20260509004506 20 184 0.0 11.3 0.00 0.00 0.00 57 1024.6
20260509003001 19 188 4.8 11.3 0.00 0.00 0.00 58 1024.7
20260509001559 18 188 4.8 11.3 0.00 0.00 0.00 60 1024.8
20260509000057 18 225 6.4 12.9 0.00 0.00 0.00 59 1024.8
20260508234553 18 188 1.6 14.5 0.00 0.00 0.00 60 1024.7
20260508233049 17 202 4.8 14.5 0.00 0.00 0.00 61 1024.8
20260508231551 17 191 3.2 9.7 0.00 0.00 0.00 63 1024.7
20260508230053 17 225 3.2 9.7 0.00 0.00 0.00 65 1024.7
20260508224556 16 192 3.2 8.0 0.00 0.00 0.00 67 1024.7
20260508223035 15 207 1.6 8.0 0.00 0.00 0.00 68 1024.6
20260508221529 15 208 1.6 8.0 0.00 0.00 0.00 70 1024.4
20260508220026 14 208 1.6 6.4 0.00 0.00 0.00 73 1024.3
20260508214522 13 211 1.6 4.8 0.00 0.00 0.00 77 1024.2
20260508213020 12 211 0.0 3.2 0.00 0.00 0.00 81 1024.1
20260508211517 12 211 0.0 4.8 0.00 0.00 0.00 83 1023.7
20260508210045 11 211 0.0 3.2 0.00 0.00 0.00 84 1023.7
20260508204516 11 211 0.0 3.2 0.00 0.00 0.00 83 1023.4
20260508203008 11 211 0.0 0.0 0.00 0.00 0.00 84 1023.1
20260508201506 11 211 0.0 0.0 0.00 0.00 0.00 83 1023.0
20260508200002 12 211 0.0 1.6 0.00 0.00 0.00 82 1023.0
20260508194600 12 211 0.0 1.6 0.00 0.00 0.00 78 1022.9
20260508193131 12 211 0.0 4.8 0.00 0.00 0.00 75 1022.6
20260508191557 12 211 0.0 4.8 0.00 0.00 0.00 73 1022.5
20260508184622 12 211 0.0 4.8 0.00 0.00 0.00 75 1022.4
20260508183057 12 211 0.0 3.2 0.00 0.00 0.00 75 1022.3
20260508181551 12 211 0.0 1.6 0.00 0.00 0.00 73 1022.2
20260508180058 13 211 0.0 4.8 0.00 0.00 0.00 72 1022.0
20260508174603 13 212 1.6 4.8 0.00 0.00 0.00 72 1022.1
20260508173050 12 212 1.6 4.8 0.00 0.00 0.00 73 1022.1
20260508171609 12 212 1.6 4.8 0.00 0.00 0.00 73 1021.9
20260508170045 12 212 1.6 6.4 0.00 0.00 0.00 74 1022.0
20260508164542 12 212 0.0 4.8 0.00 0.00 0.00 76 1021.9
20260508163040 12 212 0.0 3.2 0.00 0.00 0.00 76 1021.9
20260508161544 12 212 0.0 3.2 0.00 0.00 0.00 76 1021.9
20260508160038 12 212 0.0 3.2 0.00 0.00 0.00 75 1021.9
20260508154532 12 212 0.0 1.6 0.00 0.00 0.00 73 1021.9
20260508153037 13 212 1.6 4.8 0.00 0.00 0.00 71 1021.8
20260508151538 13 212 1.6 4.8 0.00 0.00 0.00 71 1021.8
20260508150029 13 213 3.2 8.0 0.00 0.00 0.00 71 1021.8
20260508144524 13 213 0.0 4.8 0.00 0.00 0.00 70 1021.8
20260508143021 13 213 0.0 8.0 0.00 0.00 0.00 70 1021.8
20260508141519 13 215 0.0 3.2 0.00 0.00 0.00 69 1021.7
20260508140016 13 215 0.0 6.4 0.00 0.00 0.00 69 1021.6
20260508134517 13 215 1.6 4.8 0.00 0.00 0.00 68 1021.6
20260508133014 13 215 1.6 6.4 0.00 0.00 0.00 68 1021.8
20260508131513 13 217 3.2 8.0 0.00 0.00 0.00 67 1021.5
20260508130013 13 221 0.0 4.8 0.00 0.00 0.00 67 1021.6
20260508124521 14 221 1.6 8.0 0.00 0.00 0.00 67 1021.6
20260508123140 14 225 1.6 8.0 0.00 0.00 0.00 67 1021.7
20260508121508 14 225 0.0 6.4 0.00 0.00 0.00 67 1021.7
20260508120005 14 226 0.0 6.4 0.00 0.00 0.00 67 1021.6
20260508114503 14 235 1.6 4.8 0.00 0.00 0.00 66 1021.5
20260508113000 15 234 0.0 9.7 0.00 0.00 0.00 66 1021.3
20260508111603 15 198 1.6 6.4 0.00 0.00 0.00 65 1021.1
20260508110104 15 197 1.6 6.4 0.00 0.00 0.00 62 1021.4
20260508104559 15 207 3.2 11.3 0.00 0.00 0.00 61 1021.3
20260508103053 15 203 3.2 9.7 0.00 0.00 0.00 61 1021.1